TimeMDT,TemperatureF,Dew PointF,Humidity,Sea Level PressureIn,VisibilityMPH,Wind Direction,Wind SpeedMPH,Gust SpeedMPH,PrecipitationIn,Events,Conditions,WindDirDegrees,DateUTC
12:53 AM,30.0,19.0,64,30.07,10.0,East,5.8,-,N/A,,Clear,90,2011-10-21 06:53:00
1:53 AM,27.0,19.0,72,30.09,10.0,ESE,4.6,-,N/A,,Clear,120,2011-10-21 07:53:00
2:53 AM,28.0,19.0,69,30.08,10.0,Calm,Calm,-,N/A,,Clear,0,2011-10-21 08:53:00
3:53 AM,27.0,18.0,69,30.07,10.0,East,9.2,-,N/A,,Clear,90,2011-10-21 09:53:00
4:53 AM,27.0,17.1,66,30.07,10.0,East,10.4,-,N/A,,Clear,90,2011-10-21 10:53:00
5:53 AM,27.0,17.1,66,30.11,10.0,East,9.2,-,N/A,,Clear,80,2011-10-21 11:53:00
6:53 AM,28.9,16.0,58,30.15,10.0,East,8.1,-,N/A,,Clear,80,2011-10-21 12:53:00
7:53 AM,26.1,16.0,66,30.23,10.0,East,5.8,-,N/A,,Clear,80,2011-10-21 13:53:00
11:53 AM,46.9,18.0,32,30.13,10.0,North,13.8,21.9,N/A,,Clear,360,2011-10-21 17:53:00
12:53 PM,48.9,16.0,27,30.09,10.0,NNE,9.2,19.6,N/A,,Clear,30,2011-10-21 18:53:00
1:53 PM,50.0,15.1,25,30.08,10.0,WNW,5.8,-,N/A,,Clear,300,2011-10-21 19:53:00
2:53 PM,51.1,16.0,25,30.05,10.0,NW,9.2,-,N/A,,Clear,320,2011-10-21 20:53:00
3:53 PM,51.1,16.0,25,30.07,10.0,NNW,10.4,20.7,N/A,,Partly Cloudy,340,2011-10-21 21:53:00
4:53 PM,50.0,16.0,26,30.07,10.0,North,9.2,18.4,N/A,,Clear,350,2011-10-21 22:53:00
5:53 PM,46.0,16.0,30,30.11,10.0,NNW,8.1,-,N/A,,Clear,340,2011-10-21 23:53:00
6:53 PM,42.1,16.0,35,30.14,10.0,NNW,3.5,-,N/A,,Clear,330,2011-10-22 00:53:00
7:53 PM,37.9,15.1,39,30.21,10.0,ESE,3.5,-,N/A,,Clear,110,2011-10-22 01:53:00
8:53 PM,36.0,15.1,43,30.19,10.0,Calm,Calm,-,N/A,,Clear,0,2011-10-22 02:53:00
9:53 PM,35.1,16.0,46,30.14,10.0,Calm,Calm,-,N/A,,Clear,0,2011-10-22 03:53:00
10:53 PM,36.0,18.0,48,30.09,10.0,NE,4.6,-,N/A,,Clear,50,2011-10-22 04:53:00
11:53 PM,35.1,17.1,48,30.07,10.0,ENE,3.5,-,N/A,,Clear,60,2011-10-22 05:53:00